map of CBQ home
CBQ - Airport
Location
City:  Calabar, Cross River, Nigeria
Name:Margaret Ekpo International Airport
ICAO:DNCA
IATA:CBQ

Details
Type:Airport (Aerodrome, Airfield)
Use:Public/Civil, International (customs port of entry)
Latitude:458'34"N (4.976019)
Longitude:820'50"E (8.347197)
Datum:WGS 1984
Elevation:210 ft (64 m)
Variation:1.22W (WMM2015 magnetic declination)
0.11 annual change
Runways:1
Longest:8040 × 148 ft (2451 × 45 m), paved

Time
Time Zone:UTC+1
Local Time:

Weather
METAR:DNCA 251700Z 29008KT 7000 BKN010 FEW019CB 29/24 Q1010
TAF:DNCA 252135Z 2600/2706 24007KT 3000 -TSRA BKN008 FEW019CB
BECMG 2703/2705 NSW BKN008

Related Locations
Nearby:
Farthest:CIS: 12278 mi / 19760 km
Kanton Island (Canton Island, Abariringa Island) [Canton Island Airport], P, KI

Find:

   beyond  
but within

Other Information
Maps:
NOTAMs:
Links:
Sources:

  
flag of Nigeria   

Sectional Chart

Flight Planning
at skyvector.com

Satellite Image

Google Maps Satellite view

 

Copyright © 2004-2018 Karl L. Swartz. All rights reserved.
The Great Circle Mapper name and logo are trademarks of the Great Circle Mapper.
All other trademarks mentioned herein belong to their respective owners.
Please see credits for attibutions and further copyright information.

  Follow gcmap on Facebook Follow gcmap on Twitter Follow gcmap on Google+ GCmap on LinkedIn

hCard Microformat

Geo Microformat